#timestamp,LO_Frequency,Hit,StdDev 
1507075215.1,286047002.7,N
1507075235.9,286047005.7,N
1507075255.7,286047005.4,N
1507075275.5,286047005.1,N
1507075295.4,286047000.0,N
1507075315.2,286047005.4,N
1507075335.0,286047007.2,N
1507075335.9,286047007.2,N
1507075355.8,286047006.8,N
1507075375.6,286047011.1,Y
1507075395.4,286047006.1,P
1507075415.3,286047009.4,P
1507075435.1,286047015.6,P
1507075436.0,286047015.6,Y
1507075455.8,286047005.2,P
1507075475.7,286047002.2,N
1507075495.5,286047007.6,N
1507075515.3,286047012.4,Y
1507075535.2,286047001.2,P
1507075555.9,286046998.3,N
1507075575.7,286047004.4,N
1507075595.6,286047000.5,N
1507075615.4,286047001.4,N
1507075635.2,286047002.2,N
1507075655.1,286046998.8,N
1507075656.0,286046998.8,N
1507075675.8,286046999.2,N
1507075695.6,286047002.0,N
1507075715.5,286047002.4,N
1507075735.3,286047000.1,N
1507075755.1,286047003.4,N
1507075775.8,286047005.9,N
1507075795.7,286047000.9,N
1507075815.5,286046998.2,N
1507075835.3,286047000.8,N
1507075855.2,286046999.8,N
1507075875.0,286047001.0,N
1507075875.9,286047001.0,N
1507075895.7,286046998.5,N
1507075915.6,286046995.3,N
1507075935.4,286046999.0,N
1507075955.2,286047000.0,N
1507075975.1,286046996.7,N
1507075976.0,286046996.7,N
1507075995.8,286046999.2,N
1507076015.6,286047002.6,N
1507076035.5,286047001.9,N
1507076055.3,286046998.6,N
1507076075.1,286046997.4,N
1507076095.9,286046996.8,N
1507076115.7,286046997.1,N
1507076135.5,286046995.2,N
1507076155.3,286046995.9,N
1507076175.2,286046993.6,N
1507076195.0,286046993.0,N
1507076195.9,286046993.0,N
1507076215.7,286046993.6,N
1507076235.6,286046990.5,N
1507076255.4,286046994.0,N
1507076275.2,286046991.9,N
1507076295.1,286046992.1,N
1507076296.0,286046992.1,N
1507076315.8,286046995.7,N
1507076335.6,286046995.2,N
1507076355.5,286046996.3,N
1507076375.3,286046995.8,N
1507076395.1,286046994.3,N
1507076415.9,286046990.4,Y
1507076435.7,286046995.3,P
1507076455.5,286046992.5,P
1507076475.4,286046988.6,P
1507076495.2,286046990.7,Y
1507076515.0,286047001.0,P
1507076515.9,286047001.0,N
1507076535.8,286047003.9,N
1507076555.6,286047000.5,N
1507076575.4,286046999.8,N
1507076595.3,286046999.7,N
1507076615.1,286047001.3,N
1507076616.0,286047001.3,N
1507076635.8,286047001.8,N
1507076655.7,286047000.1,N
1507076675.5,286046999.1,N
1507076695.3,286046997.7,N
1507076715.1,286046993.4,N
1507076735.9,286046997.7,N
1507076755.7,286046997.9,N
1507076775.5,286047000.0,N
1507076795.4,286047002.2,N
1507076815.2,286046999.9,N
1507076835.0,286046998.5,N
1507076835.9,286046998.5,N
1507076855.8,286046996.5,N
1507076875.6,286046999.4,N
1507076895.4,286046995.0,N
1507076915.3,286046997.4,N
1507076935.1,286046999.0,N
1507076936.0,286046999.0,N
1507076955.8,286046999.3,N
1507076975.6,286047002.7,N
1507076995.5,286047002.4,N
1507077015.3,286047001.4,N
1507077035.1,286047001.8,N
1507077055.9,286046998.5,N
1507077075.7,286046998.2,N
1507077095.5,286047000.0,N
1507077115.4,286046998.6,N
1507077135.2,286046998.4,N
1507077155.0,286046998.1,N
1507077155.9,286046998.1,N
1507077175.8,286047002.5,N
1507077195.6,286046998.4,N
1507077215.4,286047000.2,N
1507077235.3,286047000.2,N
1507077255.1,286046998.8,N
1507077256.0,286046998.8,N
1507077275.8,286046999.6,N
1507077295.7,286046997.8,N
1507077315.5,286046996.7,N
1507077335.3,286046995.2,N
1507077355.1,286046998.0,N
1507077375.9,286047000.8,N
1507077395.7,286046998.1,N
1507077415.5,286047002.3,N
1507077435.4,286047000.0,N
1507077455.2,286047002.6,N
1507077475.0,286047002.8,N
1507077475.9,286047002.8,N
1507077495.8,286046993.3,Y
1507077515.6,286046996.8,P
1507077535.4,286047000.2,N
1507077555.3,286047001.5,N
1507077575.1,286047005.0,N
1507077595.8,286047008.4,Y
1507077615.7,286047010.5,P
1507077635.5,286047008.3,N
1507077655.3,286047007.8,N
1507077675.2,286047010.2,N
1507077695.9,286047011.3,Y
1507077715.7,286047004.6,P
1507077735.6,286047007.7,P
1507077755.4,286047010.3,P
1507077775.2,286047009.4,Y
1507077795.1,286047001.3,P
1507077796.0,286047001.3,N
1507077815.8,286047006.0,N
1507077835.6,286047005.9,N
1507077855.5,286047006.4,N
1507077875.3,286047008.5,Y
1507077895.1,286047000.9,P
1507077915.9,286047001.1,N
1507077935.7,286047001.6,N
1507077955.5,286046998.5,N
1507077975.4,286047001.3,N
1507077995.2,286046998.2,N
1507078015.0,286046997.1,N
1507078015.9,286046997.1,N
1507078035.8,286046995.1,N
1507078055.6,286046998.9,N
1507078075.4,286047004.2,N
1507078095.2,286047002.8,N
1507078115.1,286046998.1,N
1507078116.0,286046998.1,N
1507078135.8,286047001.2,N
1507078155.6,286046996.9,N
1507078175.5,286046996.2,N
1507078195.3,286046998.9,N
1507078215.1,286046999.4,N
1507078235.9,286046997.1,N
1507078255.7,286047000.9,N
1507078275.5,286046999.7,N
1507078295.4,286046995.7,N
1507078315.2,286046995.7,N
1507078335.0,286046991.7,Y
1507078335.9,286046991.7,P
1507078355.8,286046989.3,N
1507078375.6,286046987.1,P
1507078395.4,286046986.6,N
1507078415.3,286046983.9,Y
1507078435.1,286046992.2,P
1507078455.8,286046994.8,P
1507078475.7,286046994.2,P
1507078495.5,286046995.1,Y
1507078515.3,286047001.8,P
1507078535.2,286047000.5,N
1507078555.9,286047001.5,N
1507078575.7,286047005.8,N
1507078595.6,286047003.4,N
1507078615.4,286047005.9,N
1507078635.2,286047002.9,N
1507078655.1,286047004.0,N
1507078656.0,286047004.0,N
1507078675.8,286047002.8,N
1507078695.6,286047001.9,N
1507078715.4,286047003.8,N
1507078735.3,286047003.9,N
1507078755.1,286046999.8,N
1507078775.8,286047004.3,N
1507078795.7,286047003.1,N
